Regional Weather Roundup
Issued by NWS

Home | Current Version | Previous Version | Graphics & Text | Print | Product List | Glossary Off
Versions: 1 2 3 4 5 6 7 8 9 10 11 12 13 14 15 16 17 18 19 20 21 22 23 24 25 26 27 28 29 30 31 32 33 34 35 36 37 38 39 40 41 42 43 44 45 46 47 48 49 50

000
ASUS43 KDTX 031910
RWRMI
MICHIGAN HOURLY REGIONAL WEATHER ROUNDUP
NATIONAL WEATHER SERVICE DETROIT/PONTIAC MI
200 PM EST TUE MAR 03 2015

NOTE: "FAIR" INDICATES FEW OR NO CLOUDS BELOW 12,000 FEET WITH NO
SIGNIFICANT WEATHER AND/OR OBSTRUCTION TO VISIBILITY.

MIZ047>049-052>055-059>063-066>070-074>076-081>083-032000-
SOUTHEAST LOWER MICHIGAN

CITY           SKY/WX    TMP DP  RH WIND       PRES   REMARKS
ADRIAN         FRZ RAIN  30  28  92 S15       29.70F FOG
ANN ARBOR      CLOUDY    29  26  89 S13       29.68F FOG
DETROIT CITY   CLOUDY    30  23  75 S14       29.71F HAZE
DETROIT        CLOUDY    28  25  86 SE9G16    29.70F FOG
FLINT          CLOUDY    30  24  78 S22       29.61F

CITY           SKY/WX    TMP DP  RH WIND       PRES   REMARKS
LANSING        FRZ RAIN  29  25  85 S17G24    29.61F FOG
LAPEER         NOT AVBL
MT. CLEMENS    FRZ RAIN  28  24  88 S16       29.68F FOG
PONTIAC        CLOUDY    27  24  89 S15G26    29.65F FOG
PORT HOPE        N/A     24  20  84 SE14      29.68F
TRI CITIES     CLOUDY    26  22  84 SE12      29.63F FOG
YPSILANTI      FRZ RAIN  32  25  75 S14       29.71F
$$
MIZ043>046-050>051-056>058-064>065-071>073-077>080-032000-
SOUTHWEST LOWER MICHIGAN

CITY           SKY/WX    TMP DP  RH WIND       PRES   REMARKS
BATTLE CREEK   CLOUDY    31  27  85 S17       29.64S FOG
BENTON HARBOR  CLOUDY    32  31  96 SW10      29.63F FOG
HOLLAND        MIX PCPN  32  29  88 S14       29.63F FOG
GRAND RAPIDS   FRZ DRZL  29  27  92 S13       29.63F VSB 1
KALAMAZOO      FRZ DRZL  31  28  89 S15G23    29.64R
$$
MIZ016>042-032000-
NORTHERN LOWER MICHIGAN

CITY           SKY/WX    TMP DP  RH WIND       PRES   REMARKS
ALPENA         LGT SNOW  23  20  88 S10       29.67F VSB 3/4
GAYLORD        SNOW      20  19  96 S9        29.56F VSB 1/2
HOUGHTON LAKE  LGT SNOW  22  19  89 SE9       29.59F FOG
PELLSTON       SNOW      23  20  88 SE7       29.60F VSB 1/2
TRAVERSE CITY  LGT SNOW  25  21  85 S3        29.59F FOG
$$
MIZ007>008-015-032000-
EASTERN UPPER MICHIGAN

CITY           SKY/WX    TMP DP  RH WIND       PRES   REMARKS
$$
MIZ004>006-011>014-085-032000-
CENTRAL UPPER MICHIGAN

CITY           SKY/WX    TMP DP  RH WIND       PRES   REMARKS
SAWYER-GWINN   LGT SNOW  23  21  93 S6        29.53F VSB 1
$$
MIZ001>003-009>011-084-032000-
WESTERN UPPER MICHIGAN

CITY           SKY/WX    TMP DP  RH WIND       PRES   REMARKS
IRON MOUNTAIN  LGT SNOW  23  20  88 SW6       29.53F VSB 1
HOUGHTON       SNOW      22  18  85 SW6       29.51F VSB 1/2
COPPER HARBOR    N/A     24  19  81 W7        29.53F
$$

ABBREVIATIONS USED IN REMARKS
   TC - TEMPERATURE IN CELSIUS
  WCI - WIND CHILL INDEX
   HX - HEAT INDEX
  VSB - VISIBILITY




USA.gov is the U.S. government's official web portal to all federal, state and local government web resources and services.